EW2725 Weather Reports


Display with metric or nautical units.
time (UTC)temp
F
wind
direction
speed
MPH
gust
MPH
rain 1hr
in
rain 24hr
in
rain mn
in
humidity
%
barometer
mb
20260508211509 56 243 3.0 0.0 0.00 0.00 0.01 61 1100.1
20260508210504 54 0 0.0 0.0 0.00 0.00 0.00 66 1009.7
20260508210108 54 243 5.0 0.0 0.00 0.00 0.01 66 1100.1
20260508210005 54 0 0.0 0.0 0.00 0.00 0.00 67 1009.6
20260508205005 54 0 0.0 0.0 0.00 0.00 0.00 67 1009.4
20260508204521 54 261 5.0 0.0 0.00 0.00 0.01 65 1100.1
20260508204005 54 0 0.0 0.0 0.00 0.00 0.00 66 1009.4
20260508203018 55 248 6.0 0.0 0.00 0.00 0.01 62 1100.1
20260508203005 54 0 0.0 0.0 0.00 0.00 0.00 67 1009.2
20260508202505 54 0 0.0 0.0 0.00 0.00 0.00 77 1009.2
20260508202005 54 0 0.0 0.0 0.00 0.00 0.00 80 1009.0
20260508201601 54 337 1.0 0.0 0.00 0.00 0.01 75 1100.1
20260508200505 53 0 0.0 0.0 0.00 0.00 0.00 82 1009.0
20260508200006 53 128 2.0 0.0 0.00 0.00 0.01 76 1100.1
20260508200004 53 0 0.0 0.0 0.00 0.00 0.00 82 1009.1
20260508195005 53 0 0.0 0.0 0.00 0.00 0.00 80 1009.0
20260508194642 53 180 1.0 0.0 0.00 0.00 0.00 75 1100.1
20260508194005 54 0 0.0 0.0 0.00 0.00 0.00 76 1009.1
20260508193130 54 189 7.0 0.0 0.00 0.00 0.00 71 1100.1
20260508192504 56 0 0.0 0.0 0.00 0.00 0.00 68 1008.9
20260508191626 57 242 5.0 0.0 0.00 0.00 0.00 64 1100.1
20260508191504 58 0 0.0 0.0 0.00 0.00 0.00 63 1008.6
20260508191005 58 0 0.0 0.0 0.00 0.00 0.00 60 1008.6
20260508190505 59 0 0.0 0.0 0.00 0.00 0.00 59 1008.5
20260508190111 58 221 7.0 0.0 0.00 0.00 0.00 60 1100.1
20260508190004 61 0 0.0 0.0 0.00 0.00 0.00 55 1008.5
20260508185505 61 0 0.0 0.0 0.00 0.00 0.00 55 1008.5
20260508184513 59 229 7.0 0.0 0.00 0.00 0.00 55 1100.1
20260508184505 62 0 0.0 0.0 0.00 0.00 0.00 50 1008.5
20260508183057 58 227 8.0 0.0 0.00 0.00 0.00 56 1100.1
20260508182506 61 0 0.0 0.0 0.00 0.00 0.00 47 1008.7
20260508182006 61 0 0.0 0.0 0.00 0.00 0.00 50 1008.7
20260508181506 58 242 8.0 0.0 0.00 0.00 0.00 55 1100.1
20260508180109 58 185 6.0 0.0 0.00 0.00 0.00 55 1100.1
20260508180006 59 0 0.0 0.0 0.00 0.00 0.00 52 1008.6
20260508175007 59 0 0.0 0.0 0.00 0.00 0.00 52 1008.7
20260508174516 58 227 7.0 0.0 0.00 0.00 0.00 54 1100.1
20260508174506 60 0 0.0 0.0 0.00 0.00 0.00 48 1008.7
20260508174006 61 0 0.0 0.0 0.00 0.00 0.00 47 1008.8
20260508173103 60 229 6.0 0.0 0.00 0.00 0.00 52 1100.1
20260508171616 58 235 7.0 0.0 0.00 0.00 0.00 51 1100.1
20260508171506 62 0 0.0 0.0 0.00 0.00 0.00 45 1008.9
20260508171007 61 0 0.0 0.0 0.00 0.00 0.00 48 1009.0
20260508170506 61 0 0.0 0.0 0.00 0.00 0.00 44 1009.1
20260508170122 59 213 6.0 0.0 0.00 0.00 0.00 48 1100.1
20260508170006 61 0 0.0 0.0 0.00 0.00 0.00 44 1009.1
20260508165506 61 0 0.0 0.0 0.00 0.00 0.00 45 1009.0
20260508164610 60 178 7.0 0.0 0.00 0.00 0.00 46 1100.1
20260508164007 64 0 0.0 0.0 0.00 0.00 0.00 42 1009.1
20260508163506 63 0 0.0 0.0 0.00 0.00 0.00 41 1009.2
20260508163020 60 188 6.0 0.0 0.00 0.00 0.00 45 1100.1
20260508162506 62 0 0.0 0.0 0.00 0.00 0.00 42 1009.3
20260508161616 60 233 5.0 0.0 0.00 0.00 0.00 35 1100.1
20260508161506 62 0 0.0 0.0 0.00 0.00 0.00 36 1009.4
20260508160135 60 294 5.0 0.0 0.00 0.00 0.00 36 1100.1
20260508160006 62 0 0.0 0.0 0.00 0.00 0.00 36 1009.5
20260508155506 62 0 0.0 0.0 0.00 0.00 0.00 35 1009.6
20260508154620 59 264 4.0 0.0 0.00 0.00 0.00 37 1100.1
20260508154506 63 0 0.0 0.0 0.00 0.00 0.00 34 1009.6
20260508154007 62 0 0.0 0.0 0.00 0.00 0.00 35 1009.6
20260508153506 62 0 0.0 0.0 0.00 0.00 0.00 36 1009.7
20260508153112 58 260 5.0 0.0 0.00 0.00 0.00 39 1100.1
20260508153007 61 0 0.0 0.0 0.00 0.00 0.00 37 1009.7
20260508152507 61 0 0.0 0.0 0.00 0.00 0.00 35 1009.8
20260508152007 61 0 0.0 0.0 0.00 0.00 0.00 36 1009.9
20260508151007 61 0 0.0 0.0 0.00 0.00 0.00 34 1009.9
20260508150506 61 0 0.0 0.0 0.00 0.00 0.00 37 1009.9
20260508150125 58 238 4.0 0.0 0.00 0.00 0.00 37 1100.1
20260508145007 59 0 0.0 0.0 0.00 0.00 0.00 39 1010.0
20260508144610 57 238 6.0 0.0 0.00 0.00 0.00 38 1100.1
20260508143506 58 0 0.0 0.0 0.00 0.00 0.00 40 1010.1
20260508143113 57 238 3.0 0.0 0.00 0.00 0.00 42 1100.1
20260508142506 57 0 0.0 0.0 0.00 0.00 0.00 42 1010.1
20260508141615 55 238 6.0 0.0 0.00 0.00 0.00 38 1100.1
20260508140507 55 0 0.0 0.0 0.00 0.00 0.00 45 1010.3
20260508140007 55 0 0.0 0.0 0.00 0.00 0.00 44 1010.3
20260508140003 55 238 5.0 0.0 0.00 0.00 0.00 43 1100.1
20260508134527 55 238 4.0 0.0 0.00 0.00 0.00 47 1100.1
20260508134507 55 0 0.0 0.0 0.00 0.00 0.00 45 1010.3
20260508134006 55 0 0.0 0.0 0.00 0.00 0.00 47 1010.3
20260508133014 54 238 3.0 0.0 0.00 0.00 0.00 45 1100.1
20260508132506 54 0 0.0 0.0 0.00 0.00 0.00 47 1010.4
20260508131504 53 238 3.0 0.0 0.00 0.00 0.00 50 1100.1
20260508130006 53 0 0.0 0.0 0.00 0.00 0.00 48 1010.5
20260508125007 53 0 0.0 0.0 0.00 0.00 0.00 52 1010.4
20260508124634 52 238 4.0 0.0 0.00 0.00 0.00 52 1100.1
20260508124506 52 0 0.0 0.0 0.00 0.00 0.00 55 1010.4
20260508124007 52 0 0.0 0.0 0.00 0.00 0.00 54 1010.4
20260508123506 52 0 0.0 0.0 0.00 0.00 0.00 56 1010.4
20260508123119 51 238 3.0 0.0 0.00 0.00 0.00 56 1100.1
20260508122506 50 0 0.0 0.0 0.00 0.01 0.00 61 1010.5
20260508121624 49 238 1.0 0.0 0.00 0.00 0.00 60 1100.1
20260508121506 49 0 0.0 0.0 0.00 0.01 0.00 62 1010.5
20260508120507 49 0 0.0 0.0 0.00 0.01 0.00 64 1010.6
20260508120125 48 238 1.0 0.0 0.00 0.00 0.00 62 1100.1
20260508115509 48 0 0.0 0.0 0.00 0.01 0.00 66 1010.6
20260508115007 48 0 0.0 0.0 0.00 0.01 0.00 66 1010.6
20260508114616 48 238 1.0 0.0 0.00 0.00 0.00 64 1100.1
20260508113124 47 238 0.0 0.0 0.00 0.00 0.00 64 1100.1
20260508111616 46 238 1.0 0.0 0.00 0.00 0.00 66 1100.1
20260508110112 45 238 1.0 0.0 0.00 0.00 0.00 69 1100.1
20260508105506 43 0 0.0 0.0 0.00 0.04 0.00 75 1010.3
20260508104626 42 238 0.0 0.0 0.00 0.00 0.00 73 1100.1
20260508103506 41 0 0.0 0.0 0.00 0.05 0.00 78 1009.9
20260508103125 42 238 0.0 0.0 0.00 0.00 0.00 72 1100.1
20260508101612 40 238 0.0 0.0 0.00 0.00 0.00 78 1100.1
20260508101507 40 0 0.0 0.0 0.00 0.06 0.00 85 1009.8
20260508100106 39 238 0.0 0.0 0.00 0.00 0.00 79 1100.1
20260508100006 39 0 0.0 0.0 0.00 0.07 0.00 84 1009.8
20260508095006 38 0 0.0 0.0 0.00 0.07 0.00 83 1009.6
20260508094646 38 238 0.0 0.0 0.00 0.00 0.00 79 1100.1
20260508094506 38 0 0.0 0.0 0.00 0.07 0.00 83 1009.6
20260508093506 39 0 0.0 0.0 0.00 0.07 0.00 82 1009.5
20260508093133 38 238 0.0 0.0 0.00 0.00 0.00 78 1100.1
20260508091642 37 238 0.0 0.0 0.00 0.00 0.00 79 1100.1
20260508091506 39 0 0.0 0.0 0.00 0.09 0.00 81 1009.5
20260508090506 39 0 0.0 0.0 0.00 0.10 0.00 81 1009.5
20260508090135 37 238 0.0 0.0 0.00 0.00 0.00 79 1100.1
20260508090006 39 0 0.0 0.0 0.00 0.11 0.00 81 1009.3
20260508085506 39 0 0.0 0.0 0.00 0.11 0.00 81 1009.2
20260508085006 39 0 0.0 0.0 0.00 0.11 0.00 81 1009.0
20260508084632 38 238 0.0 0.0 0.00 0.00 0.00 79 1100.1
20260508084007 39 0 0.0 0.0 0.00 0.12 0.00 81 1008.9
20260508083158 38 238 0.0 0.0 0.00 0.00 0.00 79 1100.1
20260508083007 40 0 0.0 0.0 0.00 0.15 0.00 82 1008.8
20260508082506 40 0 0.0 0.0 0.00 0.17 0.00 82 1008.7
20260508081636 38 238 0.0 0.0 0.00 0.00 0.00 78 1100.1
20260508081506 40 0 0.0 0.0 0.00 0.29 0.00 81 1008.6
20260508080506 41 0 0.0 0.0 0.00 0.31 0.00 81 1008.4
20260508080121 39 238 0.0 0.0 0.00 0.00 0.00 76 1100.1
20260508075506 41 0 0.0 0.0 0.00 0.31 0.00 80 1008.2
20260508075006 41 0 0.0 0.0 0.00 0.31 0.00 79 1008.2
20260508074613 40 238 0.0 0.0 0.00 0.00 0.00 74 1100.1
20260508074506 42 0 0.0 0.0 0.00 0.31 0.00 79 1008.1
20260508074006 42 0 0.0 0.0 0.00 0.31 0.00 79 1008.0
20260508073111 42 238 0.0 0.0 0.00 0.00 0.00 71 1100.1
20260508072506 42 0 0.0 0.0 0.00 0.31 0.00 76 1007.7
20260508072007 42 0 0.0 0.0 0.00 0.31 0.00 75 1007.7
20260508071703 43 238 0.0 0.0 0.00 0.00 0.00 68 1100.1
20260508071506 43 0 0.0 0.0 0.00 0.31 0.00 76 1007.8
20260508071006 43 0 0.0 0.0 0.00 0.31 0.00 76 1007.9
20260508070507 43 0 0.0 0.0 0.00 0.31 0.00 75 1007.9
20260508070015 43 238 0.0 0.0 0.00 0.00 0.00 67 1100.1
20260508070006 43 0 0.0 0.0 0.00 0.31 0.00 74 1008.0
20260508064535 44 238 0.0 0.0 0.00 0.00 0.00 66 1100.1
20260508064506 44 0 0.0 0.0 0.00 0.31 0.00 72 1007.9
20260508064006 44 0 0.0 0.0 0.00 0.31 0.00 72 1007.8
20260508063506 45 0 0.0 0.0 0.00 0.31 0.00 70 1007.7
20260508063108 45 238 0.0 0.0 0.00 0.00 0.00 64 1100.1
20260508061509 46 238 0.0 0.0 0.00 0.00 0.00 62 1100.1
20260508061006 46 0 0.0 0.0 0.00 0.31 0.00 66 1007.6
20260508060506 47 0 0.0 0.0 0.00 0.31 0.00 65 1007.5
20260508060128 48 238 0.0 0.0 0.00 0.00 0.00 59 1100.1
20260508060006 48 0 0.0 0.0 0.00 0.31 0.00 63 1007.6
20260508055506 48 0 0.0 0.0 0.00 0.31 0.00 62 1007.5
20260508055006 48 0 0.0 0.0 0.00 0.31 0.00 59 1007.5
20260508054625 49 238 2.0 0.0 0.00 0.00 0.00 59 1100.1
20260508054506 49 0 0.0 0.0 0.00 0.31 0.00 58 1007.5
20260508053126 50 238 2.0 0.0 0.00 0.00 0.00 56 1100.1
20260508053006 49 0 0.0 0.0 0.00 0.31 0.00 58 1007.4
20260508052006 49 0 0.0 0.0 0.00 0.31 0.00 57 1007.5
20260508051612 50 226 2.0 0.0 0.00 0.00 0.00 55 1100.1
20260508051506 49 0 0.0 0.0 0.00 0.31 0.00 59 1007.6
20260508050106 50 226 2.0 0.0 0.00 0.00 0.00 56 1100.1
20260508044610 50 226 1.0 0.0 0.00 0.00 0.00 56 1100.1
20260508044506 49 0 0.0 0.0 0.00 0.31 0.00 59 1007.6
20260508044006 49 0 0.0 0.0 0.00 0.31 0.00 58 1007.6
20260508043007 49 0 0.0 0.0 0.00 0.31 0.00 60 1007.5
20260508043004 50 226 2.0 0.0 0.00 0.00 0.49 58 1100.1
20260508042506 49 0 0.0 0.0 0.00 0.31 0.00 61 1007.5
20260508041514 49 226 1.0 0.0 0.00 0.00 0.49 59 1100.1
20260508041506 48 0 0.0 0.0 0.00 0.31 0.00 62 1007.6
20260508040506 48 0 0.0 0.0 0.00 0.31 0.00 66 1007.6
20260508040146 49 226 0.0 0.0 0.00 0.00 0.49 62 1100.1
20260508035506 47 0 0.0 0.0 0.00 0.31 0.31 70 1007.6
20260508035007 47 0 0.0 0.0 0.00 0.31 0.31 71 1007.6
20260508034640 48 226 0.0 0.0 0.00 0.00 0.49 63 1100.1
20260508034007 47 0 0.0 0.0 0.00 0.31 0.31 70 1007.5
20260508033506 46 0 0.0 0.0 0.00 0.31 0.31 70 1007.5
20260508033101 47 226 0.0 0.0 0.00 0.00 0.49 64 1100.1
20260508032506 46 0 0.0 0.0 0.00 0.31 0.31 74 1007.7
20260508031605 47 226 0.0 0.0 0.00 0.00 0.49 64 1100.1
20260508031506 46 0 0.0 0.0 0.00 0.31 0.31 75 1007.8
20260508031006 46 0 0.0 0.0 0.00 0.31 0.31 75 1007.8
20260508030136 47 226 0.0 0.0 0.00 0.00 0.49 64 1100.1
20260508030005 46 0 0.0 0.0 0.00 0.31 0.31 74 1007.9
20260508024624 48 226 0.0 0.0 0.00 0.00 0.49 62 1100.1
20260508024006 47 0 0.0 0.0 0.00 0.31 0.31 69 1007.7
20260508023506 48 0 0.0 0.0 0.00 0.31 0.31 69 1007.7
20260508023115 49 226 0.0 0.0 0.00 0.00 0.49 58 1100.1
20260508023006 48 0 0.0 0.0 0.00 0.31 0.31 68 1007.7
20260508022506 48 0 0.0 0.0 0.00 0.31 0.31 66 1007.8
20260508021502 51 226 0.0 0.0 0.00 0.00 0.49 56 1100.1
20260508021006 49 0 0.0 0.0 0.00 0.31 0.31 62 1007.8
20260508020135 51 226 0.0 0.0 0.00 0.00 0.49 55 1100.1
20260508020006 50 0 0.0 0.0 0.00 0.31 0.31 61 1007.6
20260508015506 50 0 0.0 0.0 0.00 0.31 0.31 60 1007.6
20260508015006 51 0 0.0 0.0 0.00 0.31 0.31 60 1007.7
20260508014631 52 226 1.0 0.0 0.00 0.00 0.49 55 1100.1
20260508014506 51 0 0.0 0.0 0.00 0.31 0.31 56 1007.6
20260508013127 52 226 1.0 0.0 0.00 0.00 0.49 59 1100.1
20260508013006 50 0 0.0 0.0 0.00 0.31 0.31 61 1007.4
20260508011632 52 214 0.0 0.0 0.00 0.00 0.49 57 1100.1
20260508011006 49 0 0.0 0.0 0.00 0.31 0.31 65 1007.2
20260508010506 49 0 0.0 0.0 0.00 0.31 0.31 72 1007.2
20260508010139 51 214 0.0 0.0 0.00 0.00 0.49 61 1100.1
20260508004642 52 214 0.0 0.0 0.00 0.00 0.49 62 1100.1
20260508004507 50 0 0.0 0.0 0.00 0.32 0.31 75 1007.1
20260508003506 50 0 0.0 0.0 0.00 0.33 0.31 77 1006.7
20260508003010 52 214 0.0 0.0 0.00 0.00 0.49 64 1100.1
20260508002506 50 0 0.0 0.0 0.00 0.33 0.31 78 1006.2
20260508002006 51 0 0.0 0.0 0.00 0.34 0.31 79 1006.1
20260508001504 52 214 0.0 0.0 0.00 0.00 0.49 69 1100.1
20260508001006 52 0 0.0 0.0 0.00 0.35 0.31 81 1006.1
20260508000008 54 214 0.0 0.0 0.00 0.00 0.49 75 1100.1
20260507235006 53 0 0.0 0.0 0.00 0.37 0.31 80 1005.9
20260507234615 54 214 0.0 0.0 0.00 0.00 0.49 75 1100.1
20260507234506 53 0 0.0 0.0 0.00 0.39 0.31 80 1006.0
20260507233507 54 0 0.0 0.0 0.00 0.41 0.31 79 1005.9
20260507233116 56 214 1.0 0.0 0.00 0.00 0.49 72 1100.1
20260507233006 55 0 0.0 0.0 0.00 0.42 0.31 78 1005.9
20260507231620 57 182 0.0 0.0 0.00 0.00 0.49 70 1100.1
20260507231506 56 0 0.0 0.0 0.00 0.43 0.31 76 1005.7
20260507230059 57 182 1.0 0.0 0.00 0.00 0.49 68 1100.1
20260507230006 56 0 0.0 0.0 0.00 0.46 0.31 73 1005.5
20260507225506 57 0 0.0 0.0 0.00 0.46 0.31 72 1005.4
20260507225007 57 0 0.0 0.0 0.00 0.46 0.31 71 1005.3
20260507224617 57 182 1.0 0.0 0.00 0.00 0.49 68 1100.1
20260507224006 57 0 0.0 0.0 0.00 0.47 0.31 70 1005.3
20260507223114 58 182 1.0 0.0 0.00 0.00 0.49 67 1100.1
20260507222006 58 0 0.0 0.0 0.00 0.47 0.31 68 1005.1
20260507221518 58 103 2.0 0.0 0.00 0.00 0.49 66 1100.1
20260507220505 58 0 0.0 0.0 0.00 0.47 0.31 66 1005.1
20260507220123 60 68 1.0 0.0 0.00 0.00 0.49 64 1100.1
20260507215006 59 0 0.0 0.0 0.00 0.47 0.31 63 1004.9
20260507214627 59 170 5.0 0.0 0.00 0.00 0.49 61 1100.1
20260507213119 61 234 3.0 0.0 0.00 0.00 0.49 59 1100.1
20260507212005 63 0 0.0 0.0 0.00 0.47 0.31 52 1004.6